Simultaneous Nadir Overpasses (SNOs) Predictions

Prediction of SNOs between AQUA and GOES-15 Satellite Orbit:

Table of predicted SNOs for the next 14.0 days since TLE Epoch: 1/5/2019
Index Date Time (AQUA) AQUA Lat,Lon GOES-15 Lat,Lon Distance(km) Time Diff (sec)
1 01/05/2019 21:58:05 0.62,-125.71 0.05,-128.37 302.58 80
2 01/06/2019 10:19:21 0.45,-130.87 -0.06,-128.46 274.04 80
3 01/08/2019 10:07:10 -0.19,-127.92 -0.05,-128.42 57.43 80
4 01/10/2019 09:54:58 -0.77,-124.95 -0.05,-128.37 388.43 80
5 01/10/2019 22:16:22 -0.36,-130.14 0.06,-128.25 214.73 80
6 01/12/2019 22:04:11 0.28,-127.18 0.06,-128.20 115.92 80
7 01/13/2019 10:25:27 0.78,-132.34 -0.07,-128.29 460.81 80
8 01/14/2019 21:52:00 0.92,-124.23 0.06,-128.14 446.14 80
9 01/15/2019 10:13:15 0.20,-129.38 -0.06,-128.23 130.73 80
10 01/17/2019 10:01:04 -0.45,-126.42 -0.06,-128.17 198.65 80
11 01/17/2019 22:22:28 -0.68,-131.61 0.06,-128.04 405.01 80




NCC Satellite Simultaneous Nadir Overpasses (SNOs) Prediction Service
